[[{"header":{"parameterUnit":"m.s-1","parameterCategory":1,"la1":30.2991,"la2":30.254,"lo1":-89.0895,"lo2":-89.0444,"dy":0.0017,"dx":0.0017,"nx":28,"ny":28,"refTime":"2023-07-17T21:00:00:Z","depth":0,"parameterNumber":2,"parameterNumberName":"U-component_of_WINDS"},"data":[0,0,0,0,0,0,0,0,0,0,0,0,0,0,0,0,0,0,0,0,0,0,0,0,0,0,0,0,0,0,0,0,0,0,0,0,0,0,0,0,0,0,0,0,0,0,0,0,0,0,0,0,0,0,0,0,0,0,0.9765,0.9765,0,0.979,0.979,0.979,0.9789,0.9789,0.9788,0.9788,0.9813,0.9814,0.9815,0,0,0,0,0,0,0,0,0,0,0,0,0,0.9717,0.9718,0.9765,0.9765,0.9765,0.9789,0.979,0.979,0.9789,0.9789,0.9788,0.9788,0.9813,0.9814,0.9815,0,0,0,0,0,0,0,0,0,0,0,0,0,0.9739,0.9718,0.9765,0.9768,0.9768,0.9789,0.979,0.979,0.9789,0.9789,0.9788,0.9788,0.9813,0.9814,0.9815,0.9835,0,0,0.982,0.9821,0,0,0,0,0,0,0,0,0.9738,0.9741,0.9767,0.9768,0.9768,0.9786,0.9782,0.9805,0.9789,0.9781,0.9788,0.9787,0.9804,0.9807,0.9812,0.9836,0.9837,0.982,0.9821,0.9822,0.9822,0,0,0,0,0,0,0,0.9736,0.974,0.9775,0.9767,0.9768,0.9768,0.9771,0.9787,0.9796,0.9782,0.9782,0.9785,0.9805,0.9811,0.9813,0.9838,0.982,0.9821,0.9822,0.9823,0.988,0.988,0,0,0,0,0,0,0.9734,0.9739,0.9774,0.9775,0.9752,0.9769,0.9772,0.9781,0.9795,0.9797,0.9785,0.9785,0.9809,0.9811,0.9814,0.9838,0.9822,0.9823,0.9824,0.9879,0.988,0.988,0,0,0,0,0,0,0.9733,0.9737,0.9773,0.9757,0.9762,0.9771,0.978,0.9781,0.9788,0.9798,0.9799,0.979,0.9808,0.9812,0.983,0.9839,0.9824,0.9825,0.9878,0.9879,0.988,0.9887,0,0,0,0,0,0,0.9732,0.9737,0.9744,0.9757,0.9762,0.9789,0.9781,0.9782,0.979,0.979,0.9803,0.9804,0.9808,0.9828,0.9831,0.9841,0.9826,0.9878,0.9879,0.988,0.9886,0.9888,0.989,0,0,0,0,0,0.973,0.9745,0.9745,0.9749,0.9772,0.9789,0.9792,0.9796,0.9791,0.9799,0.9805,0.9804,0.9838,0.983,0.9834,0.9844,0.9877,0.9878,0.988,0.9886,0.9888,0.989,0,0,0,0,0,0,0.9733,0.9747,0.9747,0.9766,0.9777,0.9789,0.9799,0.9799,0.981,0.9809,0.9814,0.9817,0.9835,0.9841,0.9832,0.9864,0.9857,0.9859,0.986,0.9862,0.9864,0.9862,0.9828,0,0,0,0,0,0.9736,0.9749,0.976,0.9777,0.9782,0.9789,0.9797,0.9799,0.981,0.9814,0.9822,0.9833,0.9846,0.9854,0.9866,0.9887,0.989,0.9896,0.9898,0.99,0.9902,0.9914,0.9917,0.9885,0.9885,0.9885,0,0,0.9743,0.9752,0.9759,0.9778,0.9786,0.9799,0.9793,0.9807,0.9817,0.9816,0.9834,0.9841,0.9852,0.9872,0.9881,0.9878,0.9911,0.9901,0.9902,0.9904,0.9915,0.9918,0.9921,0.9886,0.9886,0.9886,0,0,0.9761,0.9769,0.9784,0.9792,0.9805,0.981,0.9813,0.9826,0.983,0.9848,0.9848,0.986,0.9882,0.9891,0.9898,0.992,0.992,0.9924,0.9934,0.9946,0.9949,0.9951,0.9959,0.9962,0.9926,0.9926,0.9926,0,0.9768,0.9788,0.9792,0.9806,0.9814,0.9814,0.983,0.9838,0.9854,0.9859,0.9855,0.9883,0.9891,0.9913,0.9919,0.9924,0.9929,0.9923,0.9948,0.995,0.9952,0.9961,0.9964,0.9927,0.9927,0.9927,0.9926,0,0.9795,0.9809,0.982,0.9835,0.9845,0.986,0.9866,0.9875,0.9876,0.9882,0.9901,0.991,0.9925,0.993,0.9932,0.9953,0.995,0.9947,0.994,0.9956,0.9964,0.9967,0.9927,0.9927,0.9927,0.9927,0,0,0.9816,0.9835,0.9838,0.9846,0.986,0.9871,0.9886,0.99,0.9908,0.9919,0.9932,0.9951,0.9948,0.9957,0.9959,0.9969,0.9987,0.9965,0.9965,0.9969,1.0011,1.0014,1.0018,0.9986,0.9987,0.9988,1.0011,0,0.9837,0.9864,0.9868,0.9892,0.9905,0.9905,0.9919,0.9929,0.9934,0.9946,0.9952,0.9966,0.9961,0.9966,0.9976,0.9983,0.9996,0.9981,0.9999,1.0,0.9997,1.0022,1.0025,1.0046,1.0014,1.0014,1.0015,0,0.9865,0.9877,0.9902,0.9915,0.9921,0.9932,0.9946,0.9958,0.9969,0.9973,0.9982,0.9983,0.9999,0.9991,1.0013,1.0003,1.001,1.0015,1.0016,1.0018,1.0008,1.0026,1.0053,1.0057,1.0019,1.0019,1.0019,0,0.9879,0.9901,0.9919,0.9926,0.9941,0.9949,0.9956,0.9967,0.9976,0.9988,0.9994,1.0007,1.0015,1.0025,1.003,1.0024,1.0052,1.0044,1.0056,1.0056,1.0062,1.0062,1.0092,1.0066,1.0066,1.0066,1.0066,0,0.9902,0.9917,0.9926,0.9937,0.9955,0.9959,0.9977,0.9983,0.9993,1.0006,1.0006,1.0018,1.0024,1.0037,1.004,1.0058,1.0062,1.0065,1.0066,1.0065,1.0065,1.0071,1.007,1.0067,1.0067,1.0066,1.0066,0,0.992,0.9927,0.9947,0.996,0.9963,0.9976,0.9987,0.9998,1.0003,1.0019,1.0023,1.0032,1.0047,1.0053,1.0071,1.0074,1.0095,1.0094,1.0091,1.0091,1.0103,1.0102,1.0139,1.0144,1.0114,1.0114,1.0114,0,0.9935,0.9947,0.9961,0.997,0.9977,0.9991,1.0,1.0005,1.0014,1.0029,1.0038,1.0053,1.0066,1.0089,1.0097,1.0111,1.0112,1.0123,1.0114,1.0113,1.0113,1.0112,1.0114,1.0125,1.0126,1.0126,1.0126,0,0.996,0.9963,0.9976,0.9991,1.0002,1.0013,1.0024,1.0031,1.0038,1.0048,1.0064,1.0074,1.0093,1.0108,1.0122,1.0129,1.0129,1.0129,1.0133,1.0132,1.013,1.0132,1.0097,1.0128,1.0128,1.0128,1.0128,1.0128,0.9978,0.9989,1.0001,1.0016,1.0025,1.0035,1.0047,1.0054,1.0067,1.0083,1.0085,1.0102,1.0113,1.0133,1.014,1.0154,1.015,1.0155,1.0157,1.0158,1.0159,1.0128,1.0156,1.0156,1.0156,1.0156,1.0156,0,1.0004,1.0012,1.0025,1.0041,1.0053,1.0052,1.0064,1.0074,1.0089,1.01,1.0112,1.013,1.0145,1.0154,1.0169,1.0178,1.0178,1.0182,1.0181,1.0183,1.0161,1.0157,1.0181,1.0181,1.0181,1.0181,1.0181,1.0181,1.0019,1.0038,1.0042,1.0066,1.0073,1.009,1.0097,1.0107,1.0116,1.0136,1.0149,1.0155,1.0165,1.0181,1.0194,1.0196,1.0202,1.0206,1.0208,1.0187,1.0185,1.0182,1.0178,1.0207,1.0207,1.0229,1.0229,1.0229]},{"header":{"parameterUnit":"m.s-1","parameterCategory":1,"la1":30.2991,"la2":30.254,"lo1":-89.0895,"lo2":-89.0444,"dy":0.0017,"dx":0.0017,"nx":28,"ny":28,"refTime":"2023-07-17T21:00:00:Z","depth":0,"parameterNumber":3,"parameterNumberName":"V-component_of_WINDS"},"data":[0,0,0,0,0,0,0,0,0,0,0,0,0,0,0,0,0,0,0,0,0,0,0,0,0,0,0,0,0,0,0,0,0,0,0,0,0,0,0,0,0,0,0,0,0,0,0,0,0,0,0,0,0,0,0,0,0,0,1.9365,1.9365,0,1.9389,1.9389,1.9389,1.9409,1.941,1.941,1.941,1.9432,1.9432,1.9433,0,0,0,0,0,0,0,0,0,0,0,0,0,1.9331,1.9331,1.9365,1.9365,1.9365,1.9389,1.9389,1.9389,1.9409,1.941,1.941,1.941,1.9432,1.9432,1.9433,0,0,0,0,0,0,0,0,0,0,0,0,0,1.9349,1.9331,1.9365,1.9378,1.938,1.9389,1.9389,1.939,1.9409,1.941,1.941,1.941,1.9432,1.9432,1.9433,1.9429,0,0,1.9434,1.9435,0,0,0,0,0,0,0,0,1.9348,1.935,1.9376,1.9377,1.9379,1.9397,1.9385,1.9403,1.9409,1.9398,1.941,1.9411,1.942,1.9421,1.9425,1.943,1.9431,1.9434,1.9435,1.9435,1.9435,0,0,0,0,0,0,0,1.9347,1.9349,1.9374,1.9376,1.9378,1.9381,1.9384,1.9389,1.9406,1.9399,1.94,1.9403,1.942,1.9424,1.9426,1.9432,1.9434,1.9435,1.9435,1.9435,1.9432,1.9432,0,0,0,0,0,0,1.9344,1.9348,1.9373,1.9375,1.9364,1.9382,1.9385,1.939,1.9407,1.9409,1.9403,1.9404,1.9423,1.9425,1.9426,1.9422,1.9435,1.9436,1.9436,1.9433,1.9432,1.9432,0,0,0,0,0,0,1.9343,1.9346,1.9372,1.9362,1.9366,1.9382,1.9388,1.9391,1.9395,1.941,1.9412,1.9404,1.9424,1.9426,1.9428,1.9423,1.9436,1.9436,1.9433,1.9433,1.9432,1.9413,0,0,0,0,0,0,1.9342,1.9346,1.9346,1.9362,1.9366,1.9375,1.9388,1.9391,1.9396,1.9398,1.9411,1.9414,1.9424,1.9427,1.9429,1.9424,1.9437,1.9434,1.9433,1.9432,1.9415,1.9412,1.941,0,0,0,0,0,1.9341,1.934,1.9346,1.9349,1.9367,1.9375,1.9377,1.939,1.9396,1.9395,1.9404,1.9413,1.9423,1.9427,1.9429,1.9424,1.9434,1.9433,1.9432,1.9415,1.9413,1.941,0,0,0,0,0,0,1.9323,1.9342,1.9349,1.9354,1.9362,1.9378,1.9378,1.9387,1.9393,1.9395,1.9409,1.9412,1.9412,1.9418,1.9423,1.942,1.943,1.9429,1.9416,1.9414,1.9412,1.941,1.9437,0,0,0,0,0,1.9319,1.9325,1.9342,1.9344,1.9348,1.9362,1.9366,1.9375,1.9384,1.9388,1.9397,1.9405,1.9409,1.9412,1.9417,1.9415,1.9417,1.9413,1.9411,1.9409,1.9408,1.9404,1.9402,1.9429,1.9429,1.9429,0,0,1.9312,1.9324,1.9327,1.934,1.9348,1.9352,1.9365,1.937,1.9372,1.9388,1.9391,1.9397,1.9406,1.9406,1.9407,1.9412,1.9401,1.9408,1.9406,1.9406,1.9403,1.9401,1.9398,1.9428,1.9428,1.9428,0,0,1.9302,1.9312,1.9314,1.9321,1.9332,1.9341,1.9341,1.9355,1.936,1.9363,1.9374,1.9377,1.9385,1.939,1.9394,1.9381,1.9389,1.9382,1.9371,1.9368,1.9365,1.9364,1.9357,1.9355,1.9382,1.9382,1.9382,0,1.9291,1.9299,1.9313,1.9316,1.9321,1.9335,1.9335,1.9341,1.9354,1.9355,1.9361,1.937,1.9377,1.9377,1.9373,1.9377,1.9375,1.9381,1.9365,1.9363,1.9362,1.9355,1.9353,1.9381,1.9381,1.9381,1.9381,0,1.9285,1.929,1.929,1.9301,1.9305,1.9307,1.9319,1.9321,1.9329,1.9336,1.9337,1.9346,1.9352,1.9353,1.9361,1.9353,1.9355,1.9363,1.9372,1.9358,1.9352,1.935,1.9379,1.9379,1.938,1.938,0,0,1.9266,1.9283,1.9282,1.9286,1.9298,1.9302,1.9302,1.9309,1.9309,1.9316,1.9316,1.9321,1.9327,1.9331,1.9339,1.9336,1.9322,1.9344,1.9344,1.9338,1.9311,1.9305,1.9302,1.9328,1.9327,1.9327,1.931,0,1.9256,1.926,1.9271,1.927,1.9273,1.9285,1.9286,1.9292,1.9298,1.93,1.9307,1.9309,1.9319,1.932,1.9318,1.9325,1.9317,1.9326,1.9325,1.9325,1.9322,1.9299,1.9293,1.9277,1.9308,1.9308,1.9307,0,1.9246,1.9252,1.9252,1.9261,1.9263,1.9263,1.9268,1.927,1.9276,1.9281,1.9284,1.9292,1.9291,1.93,1.9297,1.9303,1.9303,1.9306,1.9305,1.9305,1.9315,1.9297,1.9272,1.9269,1.9304,1.9305,1.9305,0,1.923,1.9237,1.9238,1.9241,1.9252,1.9252,1.9256,1.9262,1.9264,1.9268,1.9268,1.9272,1.9273,1.9274,1.9282,1.9288,1.9277,1.9288,1.9279,1.9279,1.9276,1.9276,1.9249,1.9278,1.9278,1.9278,1.9278,0,1.9218,1.9217,1.923,1.923,1.9228,1.9239,1.9237,1.9242,1.9247,1.9246,1.9257,1.9256,1.9267,1.9266,1.9272,1.9267,1.9268,1.927,1.9272,1.9269,1.9268,1.9268,1.9269,1.9278,1.9278,1.9278,1.9278,0,1.92,1.9209,1.921,1.9219,1.9222,1.922,1.9227,1.9226,1.9232,1.9231,1.9231,1.924,1.924,1.9247,1.9249,1.9252,1.9244,1.9248,1.9242,1.9243,1.9233,1.9233,1.9205,1.9201,1.9233,1.9233,1.9233,0,1.9192,1.9191,1.92,1.92,1.9204,1.9205,1.9207,1.9216,1.9217,1.9221,1.9219,1.922,1.9221,1.9219,1.9224,1.9224,1.9227,1.9217,1.9227,1.9223,1.9225,1.9224,1.9223,1.9215,1.9214,1.9214,1.9214,0,1.9175,1.9178,1.9181,1.9183,1.9185,1.9187,1.919,1.919,1.92,1.9199,1.9199,1.92,1.92,1.9199,1.9199,1.9202,1.9208,1.921,1.9208,1.9205,1.92,1.92,1.9235,1.9211,1.9211,1.9212,1.9212,1.9212,1.9161,1.9159,1.9164,1.9165,1.9168,1.917,1.9169,1.9174,1.9174,1.9175,1.918,1.9178,1.918,1.9181,1.9183,1.918,1.9184,1.9182,1.9181,1.9179,1.9177,1.9201,1.918,1.918,1.918,1.918,1.918,0,1.9143,1.9146,1.9147,1.915,1.915,1.9156,1.9159,1.9158,1.9156,1.9158,1.9158,1.9155,1.9154,1.9158,1.9156,1.9153,1.9155,1.9152,1.9152,1.9151,1.9174,1.9175,1.9149,1.9149,1.9149,1.9149,1.9149,1.9149,1.9134,1.9131,1.9135,1.9132,1.9135,1.9133,1.9134,1.9134,1.9135,1.9132,1.9131,1.9133,1.9135,1.9133,1.9131,1.9132,1.913,1.9125,1.9126,1.9147,1.915,1.9153,1.9154,1.9125,1.9125,1.9104,1.9104,1.9104]}]]